Precipitable_Water
0.79 0.79 0.86 0.93 0.94 0.95 0.95 0.96 0.96 0.99 1.06 1.12 1.17 1.25 1.29 1.30 1.33 1.35 1.33 1.32 1.27 1.26 1.25 1.24 1.22 1.22 1.20 1.17 1.16 1.18 1.18 1.21 1.23 1.26 1.24 1.22 1.22 1.21 1.22 1.23 1.26 1.26 1.25 1.27 1.30 1.32 1.30 1.28 1.24 1.23 1.22 1.22 1.22 1.22 1.19 1.18 1.21 1.24 1.22 1.18 1.17 1.19 1.19 1.18 1.19 1.21 1.21 1.18 1.15 1.14 1.16 1.24 1.30 1.37 1.49 1.56 1.56 1.56 1.60 1.63 1.64 1.63 1.65 1.68 1.71
0.76 0.82 0.82 0.85 0.86 0.86 0.87 0.90 0.93 0.94 0.97 1.06 1.13 1.18 1.24 1.28 1.30 1.31 1.35 1.33 1.33 1.34 1.31 1.29 1.30 1.30 1.28 1.29 1.23 1.20 1.21 1.22 1.23 1.26 1.26 1.24 1.22 1.23 1.24 1.26 1.28 1.30 1.32 1.35 1.37 1.36 1.36 1.35 1.34 1.31 1.31 1.28 1.25 1.22 1.19 1.16 1.13 1.13 1.14 1.15 1.17 1.19 1.19 1.19 1.20 1.22 1.22 1.21 1.16 1.11 1.07 1.04 1.12 1.29 1.50 1.59 1.57 1.56 1.58 1.60 1.61 1.62 1.63 1.64 1.70
0.81 0.81 0.81 0.81 0.82 0.84 0.84 0.84 0.84 0.87 0.90 0.95 0.97 0.99 1.05 1.11 1.17 1.18 1.20 1.21 1.23 1.29 1.31 1.29 1.36 1.29 1.32 1.32 1.30 1.28 1.29 1.31 1.30 1.33 1.34 1.29 1.26 1.25 1.25 1.26 1.28 1.29 1.31 1.35 1.35 1.36 1.36 1.38 1.37 1.37 1.36 1.37 1.32 1.28 1.23 1.19 1.15 1.10 1.08 1.10 1.10 1.10 1.11 1.12 1.14 1.18 1.21 1.21 1.17 1.09 1.03 0.96 1.01 1.29 1.50 1.64 1.65 1.59 1.60 1.62 1.59 1.58 1.61 1.64 1.69
0.77 0.81 0.81 0.79 0.79 0.82 0.82 0.80 0.80 0.80 0.80 0.83 0.84 0.86 0.91 0.95 1.00 1.02 1.03 1.06 1.08 1.11 1.11 1.15 1.20 1.24 1.28 1.29 1.28 1.26 1.28 1.30 1.35 1.33 1.35 1.33 1.29 1.26 1.26 1.27 1.28 1.29 1.30 1.32 1.32 1.33 1.34 1.35 1.36 1.37 1.39 1.39 1.38 1.35 1.32 1.27 1.24 1.21 1.16 1.11 1.11 1.11 1.08 1.06 1.05 1.08 1.13 1.15 1.15 1.13 1.07 1.02 0.97 1.18 1.50 1.63 1.68 1.72 1.66 1.63 1.59 1.55 1.56 1.61 1.64
0.77 0.83 0.85 0.80 0.77 0.79 0.80 0.80 0.81 0.80 0.80 0.81 0.82 0.85 0.87 0.89 0.92 0.95 0.96 0.96 0.97 0.99 1.03 1.06 1.10 1.14 1.17 1.20 1.21 1.21 1.22 1.19 1.19 1.21 1.24 1.26 1.27 1.25 1.23 1.24 1.25 1.27 1.29 1.31 1.33 1.32 1.32 1.33 1.34 1.35 1.36 1.37 1.40 1.36 1.32 1.28 1.27 1.27 1.24 1.20 1.16 1.16 1.14 1.09 1.04 1.01 1.02 1.07 1.08 1.11 1.10 1.12 1.11 1.32 1.39 1.46 1.58 1.71 1.73 1.69 1.61 1.55 1.54 1.55 1.59
0.79 0.82 0.85 0.82 0.77 0.79 0.79 0.80 0.81 0.80 0.81 0.81 0.81 0.81 0.82 0.85 0.89 0.92 0.93 0.96 0.98 0.98 0.98 0.98 1.00 1.01 1.05 1.08 1.10 1.13 1.14 1.13 1.10 1.11 1.12 1.16 1.19 1.19 1.18 1.17 1.17 1.19 1.22 1.26 1.28 1.29 1.32 1.32 1.31 1.31 1.34 1.34 1.34 1.33 1.32 1.33 1.31 1.29 1.29 1.25 1.20 1.16 1.16 1.13 1.06 1.01 0.98 0.97 1.02 1.11 1.13 1.11 1.11 1.20 1.26 1.28 1.43 1.61 1.66 1.65 1.61 1.56 1.52 1.54 1.57
0.78 0.83 0.84 0.80 0.76 0.78 0.79 0.79 0.78 0.78 0.78 0.77 0.77 0.77 0.78 0.80 0.83 0.84 0.86 0.87 0.89 0.89 0.90 0.93 0.93 0.94 0.96 0.97 0.97 0.97 0.96 0.98 0.99 1.01 1.04 1.05 1.06 1.08 1.11 1.14 1.15 1.14 1.14 1.14 1.16 1.18 1.19 1.22 1.25 1.26 1.29 1.30 1.30 1.30 1.31 1.33 1.33 1.33 1.30 1.26 1.24 1.19 1.16 1.12 1.09 1.04 0.98 0.94 0.95 1.04 1.13 1.15 1.11 1.08 1.12 1.19 1.24 1.36 1.51 1.58 1.59 1.55 1.45 1.44 1.53
0.75 0.79 0.80 0.77 0.75 0.77 0.78 0.77 0.75 0.75 0.74 0.72 0.70 0.71 0.73 0.74 0.75 0.76 0.77 0.78 0.79 0.80 0.82 0.82 0.83 0.85 0.86 0.88 0.89 0.90 0.90 0.90 0.90 0.90 0.91 0.91 0.91 0.91 0.94 0.99 1.06 1.10 1.12 1.14 1.17 1.19 1.19 1.19 1.20 1.21 1.20 1.19 1.20 1.24 1.26 1.27 1.27 1.26 1.25 1.25 1.23 1.21 1.18 1.16 1.11 1.08 1.01 0.94 0.93 0.97 1.06 1.12 1.14 1.14 1.10 1.11 1.16 1.15 1.21 1.29 1.37 1.39 1.41 1.43 1.44
0.69 0.76 0.75 0.74 0.74 0.74 0.75 0.74 0.74 0.71 0.69 0.66 0.66 0.66 0.67 0.69 0.70 0.69 0.70 0.71 0.72 0.73 0.74 0.75 0.75 0.75 0.75 0.75 0.75 0.75 0.76 0.77 0.78 0.79 0.79 0.79 0.79 0.79 0.80 0.80 0.82 0.86 0.91 0.97 1.04 1.09 1.12 1.13 1.14 1.14 1.14 1.14 1.14 1.16 1.18 1.21 1.22 1.22 1.22 1.23 1.25 1.25 1.26 1.23 1.19 1.13 1.04 1.00 1.00 1.02 1.04 1.09 1.11 1.11 1.08 1.08 1.05 1.09 1.09 1.06 1.16 1.24 1.32 1.31 1.30
0.68 0.75 0.77 0.73 0.70 0.73 0.74 0.74 0.70 0.67 0.64 0.63 0.63 0.63 0.64 0.65 0.65 0.64 0.64 0.64 0.65 0.66 0.67 0.66 0.67 0.66 0.66 0.65 0.64 0.64 0.64 0.65 0.66 0.67 0.67 0.67 0.68 0.68 0.69 0.70 0.70 0.72 0.75 0.79 0.85 0.90 0.93 0.96 1.00 1.02 1.03 1.03 1.03 1.05 1.07 1.11 1.15 1.17 1.18 1.18 1.20 1.22 1.23 1.23 1.21 1.16 1.09 1.08 1.07 1.06 1.06 1.09 1.10 1.08 1.06 1.08 1.09 1.11 1.12 1.03 1.03 1.13 1.22 1.27 1.31
0.65 0.70 0.73 0.70 0.70 0.72 0.72 0.70 0.67 0.63 0.61 0.59 0.58 0.59 0.60 0.60 0.60 0.59 0.57 0.58 0.58 0.58 0.58 0.56 0.56 0.55 0.55 0.54 0.52 0.52 0.51 0.52 0.53 0.54 0.55 0.55 0.56 0.56 0.57 0.58 0.59 0.61 0.63 0.67 0.72 0.76 0.80 0.82 0.83 0.85 0.87 0.88 0.89 0.90 0.93 0.95 1.00 1.04 1.07 1.10 1.12 1.14 1.15 1.15 1.16 1.17 1.15 1.10 1.06 1.02 1.01 1.02 1.04 1.07 1.15 1.14 1.08 1.06 1.12 1.15 1.07 1.01 1.09 1.17 1.22
0.62 0.66 0.67 0.67 0.68 0.69 0.69 0.67 0.63 0.60 0.59 0.58 0.57 0.56 0.56 0.56 0.56 0.54 0.52 0.51 0.49 0.49 0.48 0.47 0.46 0.45 0.44 0.43 0.42 0.40 0.40 0.40 0.41 0.42 0.42 0.42 0.42 0.43 0.43 0.44 0.44 0.45 0.48 0.51 0.54 0.59 0.62 0.65 0.65 0.65 0.65 0.64 0.66 0.68 0.70 0.73 0.77 0.81 0.86 0.92 0.97 1.00 1.01 1.03 1.08 1.13 1.15 1.14 1.11 1.12 1.11 1.05 1.00 1.00 1.01 1.07 1.08 1.05 1.02 1.07 1.13 1.12 1.09 1.10 1.13
0.58 0.61 0.63 0.65 0.65 0.66 0.66 0.64 0.60 0.59 0.57 0.56 0.54 0.54 0.53 0.53 0.52 0.51 0.49 0.47 0.45 0.43 0.41 0.40 0.40 0.40 0.40 0.40 0.38 0.37 0.36 0.36 0.36 0.37 0.39 0.38 0.37 0.36 0.36 0.36 0.36 0.36 0.37 0.38 0.39 0.42 0.45 0.47 0.47 0.47 0.46 0.46 0.46 0.48 0.50 0.52 0.55 0.59 0.63 0.68 0.73 0.78 0.83 0.88 0.94 0.99 1.05 1.09 1.09 1.10 1.11 1.13 1.11 1.06 1.05 1.01 0.98 1.00 1.01 1.01 1.06 1.13 1.15 1.12 1.11
0.53 0.58 0.59 0.60 0.62 0.63 0.62 0.60 0.59 0.56 0.54 0.52 0.51 0.50 0.50 0.49 0.48 0.48 0.46 0.43 0.42 0.41 0.40 0.40 0.40 0.40 0.40 0.40 0.40 0.40 0.40 0.39 0.39 0.38 0.38 0.39 0.38 0.37 0.37 0.38 0.37 0.37 0.37 0.36 0.35 0.35 0.36 0.35 0.36 0.35 0.35 0.35 0.34 0.35 0.36 0.37 0.39 0.42 0.47 0.51 0.56 0.59 0.63 0.68 0.74 0.81 0.88 0.93 1.01 1.06 1.07 1.09 1.12 1.11 1.10 1.08 1.01 0.97 0.98 0.98 0.99 1.02 1.09 1.13 1.13
0.49 0.53 0.56 0.57 0.58 0.58 0.57 0.57 0.55 0.52 0.50 0.50 0.49 0.49 0.48 0.48 0.47 0.46 0.43 0.42 0.40 0.39 0.38 0.37 0.37 0.38 0.38 0.39 0.39 0.39 0.39 0.40 0.39 0.39 0.39 0.39 0.39 0.39 0.38 0.37 0.37 0.37 0.36 0.38 0.37 0.36 0.36 0.35 0.34 0.32 0.31 0.31 0.30 0.30 0.31 0.30 0.31 0.32 0.34 0.34 0.37 0.42 0.49 0.56 0.61 0.68 0.74 0.81 0.87 0.93 0.98 1.02 1.04 1.09 1.15 1.16 1.09 0.98 0.90 0.91 0.94 0.97 0.99 1.04 1.10
0.48 0.49 0.52 0.53 0.53 0.52 0.51 0.51 0.49 0.47 0.46 0.46 0.46 0.46 0.46 0.45 0.44 0.43 0.42 0.40 0.38 0.37 0.36 0.36 0.35 0.35 0.35 0.35 0.36 0.36 0.36 0.37 0.36 0.35 0.36 0.36 0.37 0.38 0.38 0.37 0.36 0.36 0.36 0.36 0.36 0.36 0.35 0.35 0.35 0.34 0.33 0.32 0.32 0.31 0.30 0.30 0.31 0.31 0.31 0.30 0.30 0.29 0.31 0.37 0.45 0.54 0.61 0.68 0.75 0.81 0.85 0.92 0.98 1.03 1.06 1.11 1.14 1.12 1.05 0.97 0.90 0.90 0.93 0.94 0.97
0.46 0.46 0.46 0.46 0.46 0.46 0.45 0.45 0.45 0.44 0.43 0.42 0.43 0.43 0.43 0.42 0.41 0.39 0.38 0.38 0.37 0.35 0.35 0.34 0.33 0.32 0.32 0.31 0.31 0.32 0.32 0.32 0.32 0.31 0.29 0.30 0.31 0.32 0.34 0.33 0.32 0.32 0.32 0.33 0.34 0.35 0.33 0.33 0.33 0.32 0.31 0.31 0.31 0.31 0.31 0.30 0.31 0.31 0.30 0.31 0.29 0.28 0.27 0.27 0.28 0.34 0.45 0.54 0.59 0.63 0.68 0.76 0.82 0.84 0.86 0.92 0.97 1.06 1.11 1.07 1.01 0.93 0.89 0.90 0.93
0.44 0.44 0.43 0.43 0.42 0.42 0.41 0.40 0.40 0.39 0.40 0.40 0.41 0.42 0.42 0.40 0.39 0.38 0.36 0.35 0.35 0.35 0.34 0.33 0.33 0.32 0.31 0.30 0.29 0.29 0.28 0.29 0.28 0.28 0.27 0.25 0.26 0.27 0.29 0.30 0.29 0.29 0.29 0.29 0.31 0.31 0.31 0.31 0.32 0.32 0.32 0.31 0.30 0.30 0.30 0.31 0.31 0.32 0.31 0.29 0.28 0.27 0.26 0.26 0.25 0.23 0.25 0.36 0.52 0.68 0.76 0.81 0.85 0.89 0.94 0.96 0.99 0.98 0.99 1.02 1.05 1.03 0.98 0.92 0.88
0.43 0.43 0.42 0.40 0.40 0.40 0.38 0.40 0.42 0.40 0.39 0.37 0.38 0.40 0.41 0.40 0.39 0.38 0.36 0.35 0.34 0.34 0.34 0.35 0.35 0.34 0.34 0.35 0.35 0.34 0.31 0.29 0.29 0.28 0.28 0.27 0.26 0.26 0.29 0.32 0.31 0.30 0.31 0.32 0.32 0.32 0.32 0.32 0.32 0.32 0.32 0.31 0.31 0.31 0.32 0.32 0.33 0.32 0.31 0.29 0.28 0.28 0.29 0.31 0.33 0.37 0.44 0.57 0.70 0.70 0.72 0.72 0.77 0.86 0.93 0.96 0.96 0.92 0.94 0.97 0.99 0.96 0.97 1.01 1.00
0.41 0.40 0.40 0.40 0.41 0.41 0.41 0.41 0.42 0.42 0.44 0.42 0.37 0.38 0.39 0.38 0.37 0.36 0.35 0.35 0.34 0.34 0.33 0.34 0.35 0.35 0.36 0.36 0.38 0.39 0.35 0.31 0.30 0.31 0.31 0.29 0.28 0.27 0.30 0.33 0.33 0.32 0.33 0.34 0.35 0.36 0.35 0.35 0.35 0.35 0.35 0.34 0.33 0.33 0.33 0.34 0.32 0.30 0.30 0.29 0.29 0.30 0.32 0.34 0.34 0.35 0.38 0.42 0.43 0.41 0.47 0.54 0.63 0.75 0.81 0.82 0.89 0.92 0.87 0.89 0.93 0.98 0.97 0.91 0.92
0.40 0.39 0.39 0.39 0.40 0.40 0.41 0.41 0.41 0.43 0.45 0.43 0.38 0.36 0.36 0.36 0.35 0.34 0.34 0.33 0.34 0.35 0.37 0.36 0.37 0.36 0.36 0.36 0.36 0.38 0.35 0.29 0.27 0.29 0.30 0.30 0.30 0.29 0.31 0.33 0.34 0.32 0.32 0.35 0.37 0.36 0.35 0.37 0.36 0.35 0.36 0.37 0.34 0.33 0.34 0.32 0.30 0.31 0.30 0.28 0.29 0.29 0.31 0.30 0.27 0.24 0.24 0.24 0.24 0.25 0.27 0.33 0.50 0.64 0.72 0.76 0.81 0.85 0.83 0.81 0.84 0.87 0.88 0.90 0.89
0.39 0.39 0.40 0.40 0.40 0.41 0.41 0.41 0.42 0.43 0.44 0.43 0.40 0.37 0.38 0.38 0.34 0.33 0.33 0.32 0.34 0.35 0.35 0.36 0.38 0.37 0.36 0.35 0.34 0.33 0.33 0.28 0.27 0.29 0.30 0.31 0.31 0.30 0.31 0.33 0.33 0.33 0.32 0.35 0.35 0.34 0.35 0.36 0.36 0.35 0.36 0.34 0.31 0.32 0.31 0.30 0.30 0.30 0.29 0.29 0.29 0.28 0.26 0.23 0.23 0.24 0.25 0.27 0.28 0.30 0.32 0.36 0.42 0.50 0.56 0.64 0.69 0.73 0.71 0.70 0.70 0.70 0.72 0.76 0.84
0.39 0.39 0.39 0.40 0.40 0.41 0.41 0.42 0.42 0.43 0.43 0.42 0.40 0.38 0.39 0.41 0.37 0.34 0.32 0.32 0.33 0.36 0.36 0.35 0.35 0.36 0.36 0.35 0.32 0.32 0.34 0.32 0.30 0.31 0.32 0.32 0.32 0.30 0.31 0.30 0.30 0.31 0.29 0.31 0.31 0.32 0.33 0.34 0.35 0.35 0.33 0.32 0.31 0.30 0.30 0.30 0.30 0.30 0.29 0.28 0.28 0.26 0.25 0.24 0.23 0.22 0.22 0.23 0.24 0.25 0.26 0.28 0.31 0.33 0.35 0.42 0.49 0.60 0.62 0.62 0.60 0.60 0.64 0.66 0.69
0.38 0.39 0.39 0.41 0.41 0.40 0.41 0.42 0.42 0.42 0.42 0.40 0.40 0.39 0.41 0.39 0.35 0.34 0.33 0.32 0.33 0.34 0.33 0.35 0.35 0.35 0.36 0.34 0.32 0.33 0.34 0.32 0.33 0.33 0.33 0.32 0.30 0.30 0.30 0.30 0.30 0.31 0.29 0.30 0.30 0.30 0.30 0.30 0.31 0.31 0.31 0.31 0.32 0.32 0.32 0.31 0.31 0.31 0.30 0.29 0.28 0.28 0.26 0.26 0.24 0.22 0.21 0.20 0.20 0.21 0.23 0.27 0.30 0.32 0.34 0.37 0.41 0.45 0.48 0.52 0.54 0.55 0.54 0.55 0.59
0.35 0.38 0.40 0.40 0.40 0.41 0.41 0.42 0.43 0.42 0.40 0.39 0.39 0.38 0.39 0.39 0.38 0.37 0.35 0.34 0.34 0.34 0.34 0.33 0.33 0.35 0.36 0.34 0.33 0.35 0.35 0.34 0.33 0.33 0.32 0.32 0.31 0.30 0.31 0.31 0.31 0.31 0.29 0.29 0.29 0.29 0.29 0.29 0.29 0.29 0.29 0.29 0.29 0.30 0.31 0.31 0.32 0.31 0.30 0.30 0.30 0.30 0.29 0.27 0.24 0.23 0.22 0.22 0.22 0.23 0.23 0.24 0.25 0.26 0.28 0.31 0.33 0.35 0.37 0.39 0.41 0.43 0.45 0.45 0.51
0.35 0.35 0.36 0.37 0.39 0.41 0.41 0.43 0.44 0.42 0.41 0.41 0.40 0.40 0.39 0.39 0.38 0.37 0.35 0.35 0.35 0.35 0.35 0.36 0.35 0.35 0.34 0.35 0.36 0.36 0.36 0.35 0.34 0.33 0.33 0.33 0.32 0.31 0.32 0.31 0.31 0.30 0.30 0.29 0.29 0.29 0.28 0.29 0.29 0.29 0.29 0.29 0.28 0.28 0.28 0.30 0.29 0.29 0.29 0.30 0.30 0.30 0.29 0.28 0.28 0.26 0.25 0.24 0.22 0.22 0.23 0.24 0.26 0.28 0.30 0.31 0.32 0.34 0.35 0.35 0.37 0.39 0.42 0.44 0.45
0.33 0.34 0.36 0.37 0.38 0.39 0.41 0.43 0.43 0.43 0.44 0.42 0.43 0.42 0.39 0.41 0.40 0.38 0.36 0.35 0.35 0.34 0.34 0.36 0.35 0.34 0.35 0.35 0.36 0.35 0.35 0.34 0.33 0.33 0.33 0.33 0.32 0.32 0.32 0.31 0.31 0.31 0.30 0.30 0.29 0.29 0.29 0.29 0.30 0.30 0.30 0.29 0.28 0.28 0.28 0.27 0.27 0.27 0.27 0.27 0.27 0.28 0.28 0.28 0.28 0.27 0.27 0.27 0.27 0.26 0.25 0.25 0.26 0.27 0.28 0.30 0.33 0.34 0.35 0.36 0.36 0.37 0.38 0.40 0.41
0.31 0.32 0.35 0.37 0.38 0.39 0.42 0.43 0.43 0.43 0.43 0.43 0.43 0.42 0.41 0.43 0.42 0.40 0.39 0.38 0.36 0.37 0.37 0.37 0.35 0.34 0.35 0.35 0.37 0.35 0.35 0.33 0.33 0.32 0.33 0.33 0.32 0.32 0.33 0.31 0.31 0.31 0.30 0.30 0.30 0.29 0.29 0.30 0.30 0.31 0.29 0.29 0.28 0.27 0.27 0.26 0.26 0.27 0.25 0.25 0.25 0.25 0.25 0.25 0.25 0.26 0.26 0.26 0.26 0.27 0.27 0.27 0.27 0.27 0.27 0.28 0.30 0.33 0.35 0.37 0.39 0.39 0.39 0.40 0.41
0.29 0.31 0.33 0.34 0.37 0.40 0.42 0.43 0.43 0.43 0.43 0.44 0.42 0.41 0.43 0.44 0.43 0.40 0.41 0.39 0.39 0.38 0.38 0.36 0.37 0.35 0.34 0.35 0.37 0.35 0.35 0.34 0.33 0.33 0.34 0.33 0.33 0.32 0.32 0.31 0.32 0.31 0.30 0.30 0.30 0.29 0.28 0.29 0.30 0.30 0.29 0.28 0.28 0.26 0.27 0.26 0.26 0.26 0.25 0.24 0.24 0.23 0.23 0.23 0.23 0.24 0.24 0.24 0.24 0.25 0.25 0.26 0.26 0.27 0.28 0.29 0.30 0.32 0.34 0.37 0.39 0.40 0.41 0.41 0.41
0.30 0.31 0.32 0.32 0.35 0.38 0.41 0.41 0.42 0.42 0.43 0.42 0.41 0.41 0.43 0.43 0.41 0.40 0.40 0.39 0.40 0.39 0.37 0.37 0.38 0.36 0.35 0.35 0.35 0.35 0.34 0.34 0.33 0.34 0.34 0.33 0.33 0.32 0.32 0.31 0.31 0.31 0.30 0.29 0.30 0.29 0.29 0.29 0.30 0.30 0.29 0.28 0.27 0.27 0.27 0.26 0.25 0.25 0.25 0.24 0.23 0.22 0.22 0.22 0.23 0.23 0.23 0.23 0.23 0.23 0.24 0.23 0.24 0.25 0.27 0.28 0.30 0.31 0.33 0.35 0.36 0.39 0.42 0.43 0.43
0.30 0.30 0.32 0.32 0.34 0.36 0.39 0.40 0.41 0.42 0.41 0.39 0.40 0.41 0.42 0.41 0.41 0.43 0.40 0.39 0.41 0.38 0.37 0.38 0.38 0.37 0.36 0.35 0.34 0.34 0.34 0.34 0.33 0.33 0.33 0.33 0.33 0.31 0.32 0.31 0.31 0.32 0.31 0.30 0.30 0.30 0.30 0.30 0.30 0.30 0.30 0.28 0.28 0.28 0.27 0.26 0.25 0.24 0.23 0.23 0.22 0.22 0.22 0.22 0.22 0.22 0.21 0.22 0.22 0.23 0.23 0.23 0.23 0.24 0.25 0.27 0.29 0.31 0.33 0.35 0.36 0.38 0.40 0.42 0.43
0.29 0.30 0.32 0.33 0.33 0.35 0.38 0.39 0.40 0.41 0.40 0.39 0.40 0.40 0.41 0.41 0.42 0.42 0.39 0.41 0.40 0.37 0.38 0.37 0.37 0.37 0.36 0.35 0.35 0.35 0.35 0.34 0.34 0.33 0.33 0.33 0.32 0.32 0.33 0.32 0.33 0.33 0.32 0.30 0.30 0.31 0.30 0.30 0.30 0.30 0.29 0.29 0.28 0.26 0.27 0.26 0.23 0.22 0.22 0.21 0.21 0.21 0.20 0.21 0.21 0.21 0.20 0.21 0.21 0.22 0.22 0.23 0.24 0.24 0.25 0.26 0.28 0.29 0.31 0.33 0.34 0.36 0.37 0.38 0.40
0.30 0.31 0.33 0.33 0.33 0.34 0.36 0.38 0.40 0.41 0.41 0.41 0.41 0.41 0.41 0.42 0.42 0.41 0.41 0.41 0.37 0.38 0.38 0.38 0.37 0.36 0.36 0.35 0.35 0.35 0.37 0.37 0.36 0.35 0.35 0.35 0.34 0.34 0.34 0.33 0.35 0.34 0.32 0.31 0.31 0.31 0.29 0.29 0.29 0.30 0.28 0.27 0.26 0.26 0.26 0.23 0.21 0.20 0.21 0.20 0.20 0.20 0.20 0.20 0.20 0.19 0.19 0.20 0.20 0.21 0.22 0.23 0.24 0.25 0.26 0.27 0.28 0.29 0.30 0.31 0.32 0.34 0.35 0.36 0.37
0.30 0.31 0.32 0.32 0.34 0.34 0.35 0.36 0.39 0.41 0.41 0.43 0.42 0.41 0.41 0.41 0.40 0.41 0.41 0.39 0.38 0.38 0.38 0.38 0.38 0.37 0.36 0.36 0.35 0.36 0.37 0.37 0.37 0.35 0.35 0.35 0.34 0.34 0.33 0.34 0.35 0.34 0.32 0.32 0.30 0.30 0.29 0.29 0.29 0.28 0.27 0.26 0.26 0.25 0.23 0.21 0.20 0.20 0.20 0.20 0.20 0.20 0.20 0.19 0.19 0.19 0.20 0.20 0.21 0.22 0.22 0.23 0.24 0.25 0.26 0.28 0.28 0.29 0.29 0.30 0.31 0.32 0.33 0.35 0.36
0.30 0.31 0.31 0.33 0.34 0.35 0.35 0.34 0.38 0.40 0.41 0.43 0.43 0.42 0.41 0.40 0.39 0.40 0.39 0.36 0.36 0.37 0.37 0.38 0.38 0.38 0.37 0.37 0.36 0.36 0.38 0.37 0.36 0.36 0.35 0.35 0.34 0.33 0.33 0.34 0.35 0.33 0.32 0.31 0.30 0.30 0.30 0.29 0.29 0.28 0.28 0.27 0.26 0.25 0.23 0.21 0.20 0.19 0.19 0.19 0.18 0.19 0.19 0.19 0.19 0.19 0.20 0.21 0.22 0.22 0.23 0.24 0.25 0.26 0.27 0.28 0.28 0.28 0.28 0.27 0.28 0.29 0.31 0.33 0.35
0.30 0.31 0.33 0.34 0.34 0.35 0.34 0.34 0.37 0.39 0.40 0.43 0.43 0.43 0.41 0.39 0.39 0.39 0.36 0.35 0.35 0.36 0.37 0.37 0.38 0.38 0.38 0.37 0.37 0.37 0.38 0.37 0.36 0.36 0.35 0.35 0.34 0.33 0.34 0.35 0.34 0.33 0.32 0.31 0.31 0.30 0.30 0.29 0.29 0.29 0.28 0.27 0.26 0.23 0.23 0.21 0.20 0.19 0.18 0.19 0.19 0.19 0.19 0.19 0.19 0.20 0.20 0.21 0.21 0.22 0.23 0.25 0.26 0.27 0.28 0.28 0.28 0.28 0.28 0.29 0.29 0.30 0.30 0.30 0.31
0.31 0.32 0.33 0.34 0.34 0.34 0.34 0.34 0.35 0.38 0.39 0.41 0.43 0.43 0.41 0.39 0.38 0.38 0.36 0.36 0.36 0.37 0.37 0.38 0.38 0.38 0.39 0.38 0.37 0.37 0.38 0.38 0.37 0.36 0.36 0.35 0.35 0.34 0.35 0.35 0.35 0.34 0.32 0.32 0.31 0.31 0.30 0.29 0.29 0.30 0.30 0.27 0.25 0.23 0.22 0.21 0.19 0.19 0.19 0.19 0.19 0.19 0.18 0.19 0.19 0.20 0.21 0.21 0.22 0.23 0.24 0.25 0.26 0.27 0.28 0.28 0.28 0.29 0.29 0.28 0.28 0.28 0.28 0.28 0.29
0.32 0.33 0.34 0.34 0.34 0.34 0.34 0.34 0.36 0.38 0.39 0.41 0.42 0.42 0.40 0.38 0.38 0.38 0.37 0.36 0.36 0.38 0.38 0.38 0.37 0.37 0.38 0.39 0.38 0.37 0.38 0.38 0.38 0.37 0.36 0.35 0.35 0.35 0.35 0.35 0.35 0.34 0.33 0.32 0.30 0.31 0.30 0.31 0.30 0.31 0.30 0.27 0.25 0.24 0.22 0.21 0.21 0.20 0.20 0.19 0.19 0.19 0.18 0.19 0.19 0.20 0.20 0.21 0.23 0.24 0.25 0.26 0.26 0.26 0.27 0.28 0.28 0.28 0.28 0.28 0.28 0.28 0.29 0.29 0.30
0.32 0.33 0.34 0.34 0.34 0.35 0.35 0.35 0.36 0.37 0.39 0.41 0.41 0.40 0.39 0.38 0.38 0.38 0.37 0.37 0.37 0.38 0.39 0.38 0.37 0.37 0.37 0.39 0.38 0.37 0.38 0.38 0.37 0.37 0.36 0.36 0.36 0.36 0.35 0.35 0.35 0.34 0.32 0.31 0.31 0.30 0.31 0.32 0.31 0.30 0.29 0.27 0.26 0.24 0.23 0.23 0.22 0.21 0.20 0.19 0.19 0.18 0.19 0.19 0.19 0.20 0.21 0.23 0.25 0.26 0.27 0.27 0.27 0.28 0.28 0.28 0.29 0.29 0.29 0.29 0.28 0.29 0.29 0.29 0.28
0.33 0.33 0.34 0.34 0.34 0.35 0.35 0.35 0.36 0.38 0.40 0.41 0.40 0.39 0.38 0.37 0.37 0.38 0.37 0.37 0.37 0.38 0.39 0.37 0.38 0.37 0.38 0.38 0.37 0.38 0.38 0.38 0.37 0.37 0.36 0.36 0.35 0.35 0.35 0.35 0.34 0.33 0.32 0.31 0.30 0.30 0.30 0.30 0.29 0.29 0.28 0.27 0.27 0.25 0.25 0.24 0.22 0.20 0.19 0.20 0.19 0.18 0.17 0.17 0.18 0.20 0.22 0.24 0.26 0.28 0.28 0.29 0.30 0.30 0.30 0.30 0.31 0.31 0.29 0.28 0.26 0.27 0.28 0.29 0.28
0.32 0.33 0.33 0.33 0.34 0.34 0.34 0.34 0.37 0.39 0.40 0.39 0.38 0.37 0.37 0.37 0.37 0.36 0.36 0.37 0.37 0.38 0.37 0.37 0.37 0.38 0.38 0.37 0.36 0.38 0.38 0.38 0.37 0.36 0.36 0.36 0.35 0.35 0.35 0.35 0.35 0.33 0.32 0.31 0.31 0.31 0.32 0.31 0.30 0.29 0.28 0.27 0.25 0.25 0.24 0.24 0.21 0.19 0.20 0.18 0.17 0.17 0.17 0.16 0.20 0.23 0.25 0.26 0.28 0.29 0.30 0.30 0.30 0.30 0.30 0.31 0.32 0.32 0.28 0.24 0.25 0.28 0.29 0.28 0.27
0.31 0.32 0.32 0.33 0.34 0.34 0.34 0.35 0.37 0.39 0.39 0.38 0.37 0.37 0.37 0.38 0.37 0.36 0.36 0.37 0.37 0.36 0.36 0.37 0.37 0.38 0.38 0.37 0.37 0.38 0.38 0.37 0.37 0.36 0.36 0.35 0.35 0.35 0.34 0.34 0.34 0.32 0.32 0.32 0.32 0.32 0.31 0.31 0.31 0.29 0.30 0.28 0.24 0.24 0.23 0.24 0.20 0.18 0.17 0.17 0.18 0.17 0.16 0.17 0.22 0.23 0.24 0.25 0.26 0.25 0.27 0.26 0.25 0.24 0.25 0.28 0.28 0.24 0.23 0.25 0.29 0.30 0.25 0.22 0.24
0.31 0.32 0.33 0.33 0.33 0.34 0.35 0.36 0.37 0.37 0.37 0.38 0.37 0.38 0.39 0.38 0.37 0.36 0.35 0.36 0.38 0.37 0.36 0.36 0.37 0.37 0.37 0.36 0.36 0.37 0.37 0.36 0.36 0.36 0.35 0.35 0.35 0.34 0.33 0.33 0.33 0.32 0.31 0.30 0.31 0.31 0.31 0.31 0.30 0.29 0.27 0.28 0.26 0.25 0.24 0.25 0.21 0.20 0.19 0.17 0.14 0.14 0.16 0.17 0.23 0.21 0.18 0.16 0.16 0.16 0.16 0.17 0.18 0.20 0.21 0.22 0.23 0.25 0.24 0.23 0.23 0.23 0.23 0.25 0.25
0.32 0.32 0.32 0.33 0.34 0.34 0.35 0.36 0.36 0.37 0.37 0.39 0.39 0.38 0.37 0.37 0.36 0.35 0.36 0.36 0.37 0.38 0.38 0.38 0.38 0.37 0.35 0.35 0.36 0.37 0.37 0.36 0.36 0.36 0.35 0.35 0.34 0.33 0.33 0.33 0.32 0.32 0.31 0.30 0.30 0.30 0.30 0.30 0.30 0.29 0.29 0.25 0.24 0.24 0.25 0.23 0.22 0.20 0.17 0.16 0.16 0.15 0.13 0.14 0.14 0.17 0.18 0.18 0.20 0.20 0.20 0.21 0.22 0.21 0.19 0.19 0.19 0.19 0.20 0.22 0.24 0.25 0.27 0.27 0.24
0.32 0.32 0.33 0.33 0.34 0.34 0.36 0.36 0.37 0.37 0.37 0.38 0.37 0.37 0.36 0.36 0.37 0.37 0.38 0.38 0.38 0.38 0.38 0.38 0.38 0.36 0.35 0.35 0.36 0.37 0.37 0.36 0.36 0.36 0.35 0.35 0.34 0.34 0.33 0.33 0.32 0.32 0.31 0.30 0.30 0.30 0.30 0.30 0.30 0.28 0.27 0.25 0.24 0.25 0.24 0.24 0.23 0.24 0.21 0.19 0.16 0.15 0.14 0.15 0.18 0.18 0.19 0.19 0.18 0.17 0.17 0.17 0.17 0.17 0.18 0.19 0.20 0.21 0.22 0.24 0.24 0.23 0.22 0.22 0.23
0.33 0.34 0.34 0.34 0.35 0.36 0.36 0.36 0.36 0.35 0.35 0.36 0.36 0.37 0.36 0.36 0.37 0.37 0.38 0.38 0.37 0.37 0.36 0.36 0.36 0.35 0.34 0.35 0.36 0.37 0.36 0.36 0.36 0.35 0.35 0.34 0.33 0.33 0.33 0.32 0.31 0.31 0.31 0.31 0.31 0.30 0.30 0.29 0.29 0.28 0.28 0.28 0.26 0.25 0.23 0.24 0.24 0.24 0.24 0.24 0.21 0.17 0.17 0.19 0.20 0.15 0.20 0.21 0.19 0.20 0.20 0.20 0.21 0.21 0.21 0.20 0.20 0.20 0.20 0.20 0.22 0.24 0.24 0.22 0.21
0.33 0.34 0.34 0.34 0.35 0.35 0.35 0.35 0.34 0.34 0.35 0.35 0.36 0.38 0.37 0.38 0.39 0.39 0.38 0.38 0.37 0.37 0.37 0.37 0.36 0.35 0.35 0.35 0.36 0.37 0.36 0.35 0.35 0.35 0.34 0.33 0.33 0.33 0.33 0.32 0.31 0.30 0.31 0.30 0.29 0.29 0.29 0.29 0.29 0.29 0.28 0.28 0.27 0.24 0.23 0.23 0.25 0.24 0.23 0.25 0.25 0.25 0.25 0.22 0.19 0.19 0.16 0.19 0.21 0.20 0.18 0.19 0.20 0.20 0.20 0.20 0.19 0.19 0.20 0.20 0.20 0.19 0.18 0.19 0.21
0.33 0.34 0.34 0.34 0.34 0.34 0.34 0.34 0.34 0.34 0.35 0.36 0.38 0.39 0.39 0.40 0.39 0.39 0.38 0.37 0.36 0.35 0.36 0.35 0.36 0.35 0.35 0.35 0.35 0.35 0.35 0.34 0.34 0.34 0.34 0.33 0.33 0.33 0.32 0.32 0.31 0.30 0.30 0.30 0.29 0.30 0.30 0.30 0.29 0.29 0.28 0.28 0.27 0.26 0.25 0.25 0.23 0.22 0.24 0.22 0.22 0.23 0.22 0.22 0.22 0.20 0.19 0.16 0.16 0.19 0.20 0.19 0.18 0.18 0.20 0.19 0.19 0.18 0.17 0.18 0.18 0.18 0.20 0.20 0.19
0.34 0.34 0.34 0.34 0.34 0.35 0.35 0.35 0.35 0.35 0.37 0.38 0.38 0.39 0.39 0.40 0.39 0.39 0.38 0.37 0.36 0.35 0.35 0.36 0.36 0.36 0.35 0.35 0.35 0.35 0.34 0.34 0.34 0.34 0.34 0.33 0.33 0.32 0.32 0.31 0.30 0.30 0.30 0.30 0.30 0.30 0.29 0.29 0.28 0.28 0.27 0.28 0.29 0.28 0.27 0.25 0.24 0.23 0.24 0.23 0.23 0.22 0.22 0.22 0.21 0.20 0.18 0.16 0.15 0.16 0.16 0.18 0.18 0.17 0.16 0.17 0.17 0.18 0.18 0.19 0.19 0.18 0.17 0.15 0.15
0.35 0.36 0.35 0.35 0.35 0.35 0.35 0.35 0.35 0.36 0.37 0.37 0.38 0.38 0.39 0.39 0.39 0.38 0.37 0.37 0.36 0.36 0.36 0.36 0.36 0.36 0.35 0.34 0.34 0.34 0.34 0.34 0.34 0.34 0.33 0.33 0.33 0.32 0.32 0.31 0.30 0.30 0.30 0.30 0.30 0.30 0.29 0.29 0.28 0.28 0.29 0.29 0.29 0.28 0.27 0.26 0.26 0.26 0.25 0.24 0.22 0.21 0.20 0.20 0.20 0.19 0.20 0.20 0.17 0.16 0.16 0.14 0.13 0.14 0.16 0.15 0.15 0.15 0.16 0.16 0.16 0.16 0.16 0.16 0.16
0.36 0.36 0.35 0.35 0.35 0.35 0.35 0.35 0.35 0.36 0.36 0.36 0.38 0.38 0.38 0.39 0.38 0.38 0.38 0.37 0.37 0.37 0.36 0.36 0.36 0.36 0.35 0.34 0.33 0.33 0.33 0.33 0.33 0.33 0.32 0.33 0.32 0.32 0.32 0.31 0.31 0.31 0.31 0.30 0.30 0.30 0.29 0.29 0.29 0.30 0.30 0.30 0.29 0.29 0.28 0.27 0.26 0.25 0.24 0.23 0.22 0.21 0.20 0.19 0.19 0.19 0.18 0.17 0.16 0.16 0.16 0.15 0.14 0.14 0.15 0.16 0.16 0.16 0.16 0.17 0.18 0.17 0.17 0.17 0.18
Wind_Speed
2 2 3 3 3 4 4 4 4 5 5 5 5 5 5 5 5 4 4 4 3 3 2 2 2 2 1 1 1 1 1 2 2 3 3 4 4 4 4 4 5 5 5 5 5 6 6 6 7 7 8 8 9 9 9 10 10 10 10 11 11 11 11 11 12 12 12 12 13 12 12 12 12 12 12 12 12 12 12 12 11 11 11 11 11
2 2 2 2 2 2 2 3 3 3 3 4 4 4 4 4 4 4 4 4 4 3 3 2 2 2 1 1 0 0 0 1 1 2 2 3 3 3 4 4 4 5 5 6 6 6 6 7 7 8 8 8 9 9 10 10 10 11 11 11 12 12 12 12 13 13 13 13 14 14 14 14 13 13 13 13 13 12 12 12 12 12 12 12 12
2 2 1 1 0 1 1 1 2 2 2 2 2 3 3 3 3 3 3 3 3 3 3 3 2 2 1 1 0 0 1 1 1 1 2 2 3 3 3 4 4 4 5 6 6 6 6 7 7 7 8 9 9 10 10 10 11 11 11 12 12 12 13 13 14 14 14 14 14 15 14 14 14 14 14 13 13 13 13 13 13 13 13 13 13
2 2 2 2 1 1 0 0 1 1 1 1 1 1 1 1 1 1 1 1 1 1 1 1 1 1 1 1 0 0 1 1 1 1 2 2 3 3 4 4 4 4 4 5 6 6 6 7 7 7 8 8 9 10 10 11 11 11 12 12 12 13 13 13 14 14 15 15 15 15 14 14 14 14 14 14 13 13 13 13 14 14 14 14 14
2 3 3 2 2 2 1 1 1 0 1 1 1 1 1 1 1 1 1 1 1 1 1 1 1 1 1 1 1 1 2 2 2 2 3 3 3 4 4 4 4 4 5 5 5 6 7 7 7 7 8 8 9 10 11 11 12 12 12 12 12 13 13 13 14 14 15 15 15 15 15 15 15 14 14 15 14 14 14 14 14 15 15 15 15
3 3 3 3 2 3 2 2 2 2 2 2 1 1 1 1 1 1 2 2 2 2 2 2 2 2 2 2 2 3 3 3 4 4 4 4 4 4 5 5 5 5 5 5 6 6 6 7 7 8 8 8 9 10 11 11 12 12 13 13 13 13 14 14 14 15 15 15 16 15 15 15 16 16 16 16 15 15 15 15 15 15 16 16 16
4 4 4 3 3 3 3 3 3 3 3 3 3 2 2 2 2 2 2 2 2 2 2 3 3 3 3 3 4 4 4 5 5 5 5 6 6 6 6 6 6 6 6 6 6 6 6 7 7 8 8 8 9 10 10 11 11 12 13 13 13 14 14 14 15 15 16 16 16 16 16 16 16 17 17 17 17 17 17 17 17 17 17 17 17
5 5 5 4 4 4 4 3 3 4 4 4 4 4 3 3 3 3 3 3 3 3 3 3 3 3 4 4 5 5 5 6 6 6 7 7 7 7 7 7 7 7 7 7 7 7 7 7 8 8 8 9 9 10 10 11 11 12 12 13 13 14 14 15 15 16 16 17 17 17 17 17 16 17 17 18 18 19 19 19 19 19 18 18 19
6 6 6 5 5 5 4 4 4 4 4 5 5 5 4 4 4 4 4 4 4 4 4 4 4 4 5 5 5 6 6 6 6 7 7 7 8 8 8 8 8 9 9 9 9 9 9 9 9 9 9 10 10 10 11 11 11 12 12 13 13 14 14 15 16 16 16 17 17 17 18 17 17 17 18 19 19 20 20 20 20 20 20 20 20
7 7 7 7 6 6 5 5 5 5 5 5 5 5 5 5 5 5 5 5 5 5 5 5 6 6 6 6 6 6 7 7 7 7 7 8 8 8 8 9 9 9 9 10 10 10 10 10 10 11 11 11 11 12 12 12 12 13 13 13 14 14 15 16 16 17 17 17 18 18 18 18 18 19 19 19 20 20 21 21 21 22 22 22 22
8 8 8 8 7 7 7 7 6 6 6 6 6 6 6 6 6 6 6 6 6 6 7 7 7 7 7 7 7 7 8 8 8 8 8 9 9 9 9 9 9 10 10 10 10 10 11 11 12 12 12 12 13 13 13 14 14 14 14 15 15 15 16 17 17 18 18 18 18 19 19 19 19 20 19 19 20 21 21 22 22 22 23 23 22
10 9 9 9 8 8 8 8 8 7 7 7 7 6 6 6 7 7 7 7 7 8 8 8 8 8 8 8 8 8 9 9 9 9 9 9 10 10 10 10 10 11 11 11 11 11 12 12 13 13 13 14 14 14 14 15 15 15 16 16 16 16 17 17 18 19 19 19 19 19 20 20 20 20 20 20 21 22 22 23 23 23 23 23 23
11 11 10 10 9 9 9 9 9 9 8 8 8 7 7 7 8 8 8 8 8 8 9 9 9 9 9 9 9 9 9 10 10 10 10 10 10 10 10 11 11 11 12 12 12 12 13 13 14 14 14 15 15 15 15 16 16 16 17 17 17 17 18 18 18 19 20 20 20 20 20 20 21 21 21 21 22 22 23 23 24 24 24 24 24
13 12 12 11 11 11 10 10 10 10 10 9 9 9 9 9 9 8 9 9 9 9 9 10 10 10 10 10 10 10 10 10 10 10 10 11 11 11 11 11 11 12 12 12 13 13 14 14 14 15 15 15 16 16 17 17 17 18 18 18 18 18 19 19 19 20 20 20 21 21 21 21 22 22 22 22 23 23 24 24 24 25 25 25 25
14 13 13 13 12 12 12 12 12 11 11 10 10 10 10 10 10 10 9 10 10 10 10 10 10 10 10 10 10 10 10 10 10 11 11 11 11 11 11 11 12 12 12 12 13 13 14 14 15 15 15 16 16 17 17 17 18 18 19 19 20 20 20 20 20 21 21 21 21 21 21 22 22 22 23 23 24 24 24 25 25 26 26 26 26
14 14 14 14 14 13 13 13 13 12 12 12 12 12 12 12 11 11 11 11 11 11 11 11 11 11 11 11 11 11 11 11 11 11 11 11 11 12 12 12 12 12 13 13 13 13 14 14 15 15 16 16 17 17 17 18 18 18 19 19 20 21 21 22 22 22 22 22 22 22 22 23 23 23 24 24 25 25 25 25 26 27 27 28 28
15 15 15 15 15 15 15 14 14 13 13 13 13 13 13 13 12 12 12 12 12 12 11 11 11 11 12 12 11 11 12 12 12 12 12 12 12 12 13 13 13 13 13 14 14 14 14 15 15 16 16 17 17 18 18 18 18 18 19 19 20 21 21 22 22 23 23 23 23 23 23 24 24 25 25 25 25 26 26 26 27 27 28 29 29
16 16 16 16 16 16 16 16 15 15 14 14 14 14 14 13 13 13 13 13 13 12 12 12 12 12 12 12 12 12 12 13 13 13 12 13 13 13 13 14 14 14 14 15 15 15 15 16 16 17 17 17 18 18 18 19 19 19 19 20 20 21 21 21 22 22 23 23 24 24 24 24 25 25 25 25 26 27 28 28 28 28 29 29 30
16 16 17 17 17 17 17 17 16 16 16 15 15 15 15 14 14 13 13 13 13 13 13 13 13 13 13 14 14 14 13 14 14 14 14 14 14 14 14 14 15 15 15 16 16 16 16 17 17 17 18 18 18 19 19 19 20 20 20 21 21 21 21 21 21 22 22 23 23 23 24 25 25 25 26 26 27 28 29 30 30 30 30 30 31
17 17 17 17 17 17 18 17 17 17 16 16 16 16 15 15 15 14 14 14 14 14 14 14 14 14 15 15 15 15 15 15 15 15 15 15 15 16 16 15 16 16 16 17 17 17 17 18 18 18 18 19 19 19 20 20 20 21 21 21 22 22 22 22 22 22 23 23 24 24 25 26 26 26 27 28 28 29 30 31 31 32 32 32 32
17 17 18 18 18 18 18 18 18 17 17 17 16 16 16 16 15 15 15 15 15 15 15 15 15 15 16 16 16 16 16 16 16 17 17 17 17 17 17 17 17 17 17 18 18 18 19 19 19 19 19 20 20 20 21 21 21 21 22 22 22 22 22 22 22 23 23 24 25 25 26 26 26 27 28 28 29 30 31 32 32 33 33 34 34
17 18 18 18 19 19 19 19 19 18 18 18 17 17 17 17 17 17 16 16 17 17 17 17 17 17 17 17 17 17 17 17 17 17 18 18 18 18 18 18 18 18 18 19 19 19 20 20 20 20 20 20 21 21 21 22 22 22 23 23 23 23 23 23 23 23 24 24 25 26 26 27 27 28 29 29 30 31 31 32 33 34 34 35 35
17 18 19 19 19 20 20 20 20 19 19 19 19 19 19 18 18 18 18 18 18 18 18 18 18 18 18 18 17 18 18 18 18 18 18 18 19 19 18 18 19 19 19 19 20 20 21 21 21 21 21 22 22 22 22 23 23 23 24 24 24 24 24 24 24 24 25 25 26 27 27 28 28 29 30 30 31 31 32 33 33 34 35 36 36
18 18 19 19 20 20 20 20 20 20 20 20 20 20 20 19 19 19 19 19 19 19 19 19 19 19 20 19 19 19 19 19 19 19 19 19 19 19 19 19 19 19 20 20 20 21 22 22 22 23 23 23 23 23 24 24 24 25 25 25 24 24 24 24 24 25 25 26 27 28 28 29 29 30 31 31 32 32 33 33 34 35 35 36 37
18 19 19 20 20 21 21 21 21 21 21 21 21 21 20 20 20 20 20 20 20 20 20 20 20 20 20 20 20 20 20 19 20 20 20 20 20 20 20 20 20 20 20 21 21 22 22 23 23 24 24 24 24 24 25 25 25 25 25 25 25 25 24 24 25 25 26 27 28 29 30 30 31 31 32 32 33 34 34 35 35 35 36 36 37
19 19 20 21 21 21 21 21 22 22 21 21 21 21 21 21 21 21 21 21 21 21 21 21 21 21 21 21 21 20 20 20 20 21 20 20 20 20 20 20 21 21 21 21 21 22 23 23 23 24 24 24 25 25 25 25 25 26 26 26 25 25 25 25 26 26 27 28 29 29 30 31 32 33 33 34 34 35 35 36 36 37 37 37 37
19 20 20 21 21 22 22 22 22 22 22 22 22 21 22 21 21 22 22 22 22 22 22 21 21 22 22 22 22 21 21 21 21 21 21 21 21 21 21 21 22 22 22 22 22 22 23 24 24 24 25 25 25 25 25 25 26 26 25 25 25 25 25 25 26 27 28 29 30 31 31 32 33 33 34 35 35 36 37 37 38 38 38 39 39
20 21 21 21 22 22 22 23 23 22 22 22 22 22 22 22 22 22 22 22 23 23 22 22 22 22 22 22 22 22 22 22 22 22 21 21 21 22 22 22 22 22 22 23 23 23 24 25 25 25 25 25 25 25 25 25 25 25 25 25 25 25 25 26 27 28 29 30 31 32 33 33 34 35 35 36 37 37 38 39 39 40 40 40 40
22 22 22 22 23 23 23 23 23 23 23 23 23 23 23 22 23 23 23 23 23 23 23 23 23 23 23 23 23 22 22 22 22 22 22 22 22 22 22 22 23 23 23 24 24 25 25 25 26 25 25 25 25 25 25 25 25 26 25 25 25 25 26 27 28 29 29 30 31 32 33 34 35 36 37 38 38 39 40 40 41 41 42 42 42
23 23 23 23 23 23 24 24 24 24 24 24 23 23 23 23 23 23 24 24 24 24 24 24 23 23 23 23 23 23 23 23 23 23 23 23 23 23 23 23 23 24 24 25 25 25 26 26 26 26 26 25 25 25 25 25 26 26 26 25 25 26 27 28 29 29 30 31 32 33 34 35 36 37 38 39 40 41 41 42 42 43 44 44 44
24 24 24 24 24 24 24 24 24 24 25 24 24 23 23 23 23 23 24 24 24 25 25 24 24 24 24 24 24 23 23 23 23 23 24 24 23 24 24 24 24 25 25 26 26 26 27 27 26 26 26 26 26 26 26 25 25 26 26 26 26 27 28 29 30 30 31 32 33 34 35 36 37 38 39 40 41 42 43 43 44 44 45 45 46
25 25 25 24 24 24 25 25 25 25 25 25 25 24 24 24 24 24 24 24 25 25 25 25 25 25 25 25 25 24 24 24 24 24 25 24 24 25 25 25 25 25 26 27 27 27 27 27 27 27 27 26 26 26 26 26 26 26 26 27 27 28 29 30 31 31 32 33 34 35 35 36 37 37 38 40 41 42 43 44 44 45 45 46 46
26 26 25 25 25 25 25 25 25 25 25 25 25 25 25 25 25 24 24 25 25 25 25 26 26 26 26 26 26 26 26 25 25 25 25 25 25 25 25 26 26 26 27 28 28 28 28 28 27 27 27 27 27 26 26 26 26 26 27 28 29 30 31 31 32 33 34 35 35 35 36 36 36 37 38 39 40 41 42 43 45 45 45 46 46
27 26 26 26 26 25 25 25 25 26 26 25 25 25 25 25 25 24 25 25 25 25 25 26 26 26 26 27 27 27 26 26 26 26 26 26 26 26 26 26 26 27 28 28 28 28 28 28 28 28 27 27 27 27 27 27 27 27 28 29 30 31 32 32 33 34 35 36 36 36 37 37 37 37 37 38 39 40 41 42 44 45 46 46 46
28 27 27 27 26 26 26 25 26 26 26 25 25 25 25 25 25 25 25 25 26 26 26 26 26 26 26 26 27 27 26 26 27 27 26 26 26 26 26 26 27 27 28 28 29 29 29 29 29 29 28 28 28 28 28 28 28 29 29 30 31 32 33 34 35 35 36 36 37 37 37 38 37 37 37 37 38 39 40 42 43 44 46 47 47
28 28 28 27 27 27 26 26 26 26 25 25 25 25 26 26 25 25 26 26 26 26 27 27 27 27 27 27 27 27 26 26 27 27 27 26 26 26 26 27 27 28 28 29 29 29 29 29 29 29 29 29 29 29 29 29 30 31 31 32 33 34 34 35 35 36 36 37 37 37 38 38 38 37 37 37 38 38 39 40 42 43 44 46 46
29 28 28 28 27 27 27 26 26 26 25 25 25 26 26 26 26 26 26 26 27 27 27 27 27 27 27 27 27 27 27 27 27 27 27 27 27 27 27 27 28 28 29 29 29 29 30 29 30 30 30 30 30 30 30 31 32 32 33 34 34 35 35 35 36 36 37 37 37 37 37 37 38 38 38 39 39 39 39 39 40 42 43 44 45
29 29 28 28 27 27 27 27 26 26 25 25 25 26 26 26 26 26 27 27 27 28 28 28 28 28 28 28 28 27 27 27 27 27 27 27 27 27 28 28 29 29 29 30 30 30 30 30 30 30 30 31 31 31 32 32 33 33 35 35 35 35 36 36 36 37 37 37 36 36 37 38 39 39 40 40 40 39 39 40 40 41 42 43 44
28 28 28 27 27 27 27 27 26 26 25 25 25 26 26 26 26 27 27 28 28 28 28 28 28 28 28 28 28 28 28 27 27 27 27 27 27 28 28 29 29 30 30 30 30 31 31 31 31 31 31 31 32 32 33 33 34 35 36 36 36 36 36 36 37 36 36 36 36 37 38 39 40 40 40 41 40 40 40 41 41 41 42 43 43
27 27 27 27 27 26 26 26 26 26 26 26 26 26 26 26 27 27 28 28 29 29 29 29 29 28 28 28 29 28 28 28 27 27 27 28 28 28 29 29 30 30 30 31 31 31 31 31 32 32 32 32 32 33 33 34 35 36 36 36 36 37 37 37 37 36 36 36 37 38 39 40 41 41 41 41 41 41 41 42 42 43 43 43 44
26 26 26 26 26 26 26 26 26 26 26 26 27 27 27 27 28 28 28 29 29 29 29 29 29 29 29 29 29 29 28 28 28 28 28 28 28 29 29 30 30 31 31 31 31 32 32 32 32 32 32 33 33 33 34 35 35 36 36 37 37 37 38 38 37 36 36 37 37 39 40 41 41 41 42 42 42 42 42 43 43 44 44 44 44
25 25 25 25 25 26 26 26 26 27 27 27 27 28 28 28 28 29 29 29 29 30 30 30 29 29 29 29 29 29 28 28 28 28 28 28 29 29 30 30 30 31 31 31 32 32 32 32 32 33 33 33 34 34 34 34 35 36 36 37 37 37 38 37 35 35 36 38 40 41 42 43 43 43 43 43 43 43 44 44 44 45 46 46 46
25 25 25 25 25 25 26 26 27 27 27 28 28 28 28 28 28 28 28 28 28 29 30 30 30 30 30 30 30 29 29 29 29 29 29 29 29 30 30 30 31 31 31 32 32 33 33 33 33 34 34 34 34 35 35 34 35 36 37 37 37 38 38 35 35 38 41 42 42 42 42 43 43 43 44 44 44 45 46 46 46 47 47 47 47
25 25 25 25 25 25 26 26 27 27 27 27 27 27 27 27 28 28 28 28 28 29 29 30 31 31 31 31 30 30 30 30 30 30 30 30 30 30 30 30 31 31 32 33 33 33 34 34 34 35 35 35 35 35 35 35 36 36 36 37 37 37 37 37 41 43 43 42 41 42 43 44 44 45 45 45 45 46 47 48 48 48 48 49 49
25 25 25 25 25 26 26 27 27 27 27 27 26 26 26 27 27 27 28 28 29 30 30 31 31 32 32 31 31 31 31 31 31 31 31 31 30 30 30 31 31 32 33 33 34 34 35 35 35 35 36 36 37 36 36 36 37 37 37 37 37 37 38 41 44 44 42 42 44 45 45 45 46 46 47 47 47 48 48 49 49 50 50 51 51
25 26 26 26 26 26 26 27 27 26 27 27 27 27 27 28 28 28 29 30 31 31 32 32 32 32 32 32 32 31 31 31 31 31 31 31 30 30 30 31 32 33 33 34 34 35 35 36 36 36 37 37 37 37 37 38 38 38 38 38 39 40 42 43 44 44 44 44 45 45 45 46 47 47 48 48 49 49 50 50 51 52 52 53 53
26 26 26 26 26 26 27 27 27 27 27 27 28 28 29 29 30 30 31 31 32 32 33 33 33 33 33 33 32 32 32 32 31 31 31 31 31 31 31 32 33 33 34 34 35 35 35 36 36 36 37 37 37 38 39 39 38 39 39 39 40 42 43 44 43 45 47 46 44 45 46 47 47 48 49 49 50 51 52 52 53 54 54 55 55
25 26 26 27 27 27 27 27 27 27 28 28 28 29 30 30 31 31 32 32 32 33 33 33 33 33 33 33 33 33 32 32 32 31 31 31 31 32 32 33 33 34 34 34 35 35 35 36 36 37 37 37 38 39 39 39 39 40 40 40 41 42 43 43 44 45 46 48 48 47 47 48 49 50 50 51 52 53 54 54 55 55 56 56 56
25 26 27 27 27 27 27 27 27 28 28 28 29 30 30 30 31 31 32 32 32 32 33 33 33 33 33 33 33 33 33 32 32 32 32 32 32 33 33 33 34 34 35 35 35 36 36 36 37 37 38 38 38 39 39 40 40 40 40 41 41 42 42 43 44 45 45 47 49 49 49 50 51 51 52 53 54 55 55 56 56 57 57 58 57
25 26 27 27 28 27 27 27 28 28 29 29 29 30 30 30 30 31 32 32 32 32 32 32 33 33 33 33 33 33 33 32 32 32 32 32 33 33 33 34 34 35 35 35 36 36 36 37 37 37 38 38 38 39 39 39 40 40 40 41 41 42 42 42 43 44 45 46 48 50 51 52 54 54 54 55 56 56 56 57 57 58 58 57 56
25 26 27 27 28 28 28 28 28 29 29 29 29 30 30 30 30 31 31 31 31 32 32 32 32 33 33 33 33 33 33 33 33 32 33 33 33 33 34 34 35 36 36 36 36 37 37 37 37 37 38 38 38 38 39 39 39 40 40 41 41 42 42 43 44 45 45 46 49 51 52 53 56 57 56 57 57 57 57 58 57 58 58 56 54
Wind_Direction
145 136 121 107 93 92 87 87 87 87 87 88 89 88 90 92 96 99 104 108 115 122 130 139 150 160 168 183 210 238 258 265 273 278 283 287 290 292 292 290 284 283 284 287 287 284 281 280 277 273 271 270 270 271 272 273 273 274 274 275 276 277 278 280 283 285 286 286 287 287 286 280 275 272 272 270 268 267 268 269 270 269 269 270 271
174 167 146 118 93 91 88 94 95 93 94 97 95 92 90 88 87 86 90 92 94 98 104 108 121 135 143 149 150 255 300 293 287 288 292 293 296 298 297 296 288 284 284 287 288 287 284 282 281 276 272 270 270 271 272 273 273 275 275 276 276 276 277 277 279 281 283 284 285 286 286 283 277 273 271 269 267 266 266 267 268 268 267 268 270
187 189 183 175 155 99 92 100 100 103 105 114 113 108 106 101 95 91 88 85 86 85 87 88 89 94 99 99 62 36 12 352 334 317 311 306 301 302 304 303 297 289 284 285 287 288 287 286 286 282 275 271 271 272 273 274 275 275 276 277 277 277 278 279 278 278 280 281 283 284 284 282 278 275 272 269 268 266 265 266 267 267 267 268 268
211 207 206 210 217 228 233 121 104 113 118 133 135 134 138 139 136 133 131 124 122 106 100 91 73 60 56 56 15 355 351 349 348 335 325 322 313 310 311 309 307 301 292 288 287 288 286 285 286 285 280 275 273 274 275 277 277 278 278 277 277 278 279 280 280 280 280 280 281 281 280 279 277 275 272 269 269 268 266 266 267 268 267 267 268
226 218 219 218 221 239 259 268 262 215 189 187 176 173 182 190 198 209 209 213 218 219 221 231 249 271 288 296 298 303 310 312 316 316 315 317 314 314 315 313 313 311 305 299 295 292 288 285 284 283 281 278 277 277 277 278 279 279 279 279 280 280 281 282 281 281 281 282 282 279 277 275 274 273 272 271 270 268 267 267 268 269 268 268 268
233 229 228 226 229 241 253 261 262 256 250 246 245 238 239 244 245 247 244 243 241 242 246 251 255 259 263 269 279 287 293 296 299 301 303 306 307 307 307 308 308 308 306 304 303 299 295 291 288 287 285 282 281 280 280 279 279 280 280 281 281 281 281 283 283 283 282 282 283 280 277 275 272 271 270 270 268 267 267 268 269 269 269 269 268
239 239 235 234 242 246 249 253 254 253 255 254 251 248 242 242 244 247 248 248 250 253 257 260 260 263 267 269 275 281 286 290 293 295 297 298 299 299 299 299 299 300 299 299 301 300 298 296 293 292 290 288 287 285 284 284 284 284 284 284 283 282 281 281 282 283 283 283 281 280 280 278 274 272 269 268 267 266 266 267 269 269 269 268 268
241 242 241 244 249 248 247 250 252 251 251 252 252 250 247 245 244 247 248 249 254 256 258 260 263 267 270 273 277 281 284 287 289 291 292 293 295 295 296 296 296 296 296 296 297 297 296 295 294 293 292 292 292 291 289 289 288 288 288 288 287 285 283 282 281 282 283 283 281 280 280 280 277 274 271 270 269 266 266 267 268 269 269 269 269
243 243 242 246 249 247 246 249 252 250 250 252 254 255 253 252 252 254 254 256 259 260 264 266 268 271 273 277 280 282 284 286 288 289 291 292 293 294 294 295 295 295 295 296 296 296 296 295 295 295 294 294 294 293 293 292 291 290 290 290 290 289 287 285 284 282 282 281 281 280 281 280 277 276 275 274 271 268 266 266 267 268 268 269 269
244 244 244 246 247 246 246 248 250 249 249 252 256 257 257 256 257 258 257 259 261 264 267 270 272 274 276 279 281 283 284 285 287 288 290 291 292 293 294 294 294 295 295 295 295 295 295 295 295 296 296 296 296 295 295 294 293 292 292 291 291 290 289 288 286 285 283 281 280 280 280 280 278 277 276 275 273 271 270 269 268 268 268 268 268
244 244 245 249 247 247 247 248 249 249 248 250 253 255 258 259 260 262 262 262 263 266 268 271 274 276 278 280 282 284 284 284 286 287 289 291 293 293 294 294 294 294 295 295 295 295 295 295 295 295 295 295 295 295 294 294 294 293 293 292 291 291 290 289 287 285 284 283 281 280 280 279 279 277 275 274 274 273 273 273 271 269 268 268 268
245 244 246 250 249 249 249 249 248 248 248 249 251 254 258 261 264 266 267 267 266 267 268 270 272 275 277 279 281 283 283 284 285 287 288 290 292 293 294 294 294 294 294 295 295 295 296 296 296 295 295 295 294 294 293 293 293 292 292 291 291 291 290 290 288 286 284 283 282 281 280 280 279 278 276 274 273 273 274 274 274 272 271 269 268
245 245 246 249 250 250 249 250 249 248 248 248 252 255 259 262 265 268 269 270 270 270 270 270 272 273 275 277 279 281 282 282 283 284 286 287 289 291 292 292 293 293 294 294 294 295 295 296 295 295 295 295 294 294 293 292 292 291 291 290 290 290 290 290 288 287 286 285 283 282 281 280 279 278 277 275 273 273 274 274 274 274 274 272 270
246 247 247 247 248 250 250 252 252 252 251 251 254 256 260 262 265 267 269 271 271 272 271 272 273 274 275 277 278 279 280 281 282 283 284 285 287 288 290 291 291 292 293 293 294 294 295 295 295 295 295 295 295 294 293 293 292 291 291 290 290 289 289 289 287 286 286 285 285 284 283 281 279 278 277 276 276 274 274 274 274 274 274 274 273
248 248 248 248 248 250 252 254 255 256 256 256 257 258 260 262 264 265 268 269 270 271 272 273 273 274 275 276 278 278 279 280 281 282 283 284 286 288 289 290 292 293 294 294 295 296 296 296 296 296 296 296 296 295 295 294 293 292 292 291 290 289 289 288 287 286 285 284 284 284 283 282 281 280 278 277 276 275 275 274 274 273 273 273 273
249 248 248 248 248 250 253 255 256 257 258 259 259 260 261 262 263 265 266 267 268 270 271 272 273 274 275 276 277 277 277 278 279 281 282 284 286 288 289 291 292 293 294 295 296 297 297 297 297 297 297 297 297 296 296 295 295 294 294 293 292 290 289 288 287 286 285 284 284 283 282 282 282 281 280 279 277 276 275 274 274 274 273 273 272
249 249 249 249 248 250 251 252 254 255 257 258 260 261 262 262 263 264 265 265 267 268 271 272 274 275 276 276 277 277 277 277 278 279 282 284 286 288 289 291 292 293 294 295 296 297 297 297 297 297 297 298 297 297 296 296 296 296 296 295 294 293 291 290 288 286 285 284 283 283 282 281 281 280 280 279 278 277 276 275 274 274 274 273 272
251 251 251 250 249 250 250 250 251 252 253 255 258 260 260 261 261 263 264 265 266 268 271 273 276 277 277 277 277 277 278 278 278 279 282 284 286 288 290 291 292 293 294 294 295 296 297 297 297 297 298 298 298 298 297 297 296 296 296 296 295 295 293 292 290 287 286 284 283 283 282 282 281 281 280 279 278 277 278 277 276 275 274 274 273
253 253 252 251 250 250 249 249 249 250 251 253 255 258 259 259 260 261 263 264 265 267 270 272 275 276 276 276 276 277 278 278 278 279 281 283 286 288 289 290 291 292 293 294 294 295 296 297 297 297 297 298 298 298 297 296 296 296 296 295 295 295 294 293 291 289 288 287 286 285 284 283 282 281 280 279 278 278 278 278 278 277 275 274 273
254 254 253 252 250 250 250 249 250 250 251 252 254 256 258 258 258 260 262 263 265 267 269 271 273 274 275 275 275 275 277 279 279 279 280 282 284 286 287 289 290 292 293 293 293 295 295 296 296 296 296 297 297 297 296 296 297 297 296 295 295 295 294 292 291 291 290 289 288 287 285 284 283 282 280 279 278 278 278 278 278 277 277 275 274
256 255 254 253 251 251 251 251 251 251 252 252 254 256 257 257 257 258 260 262 264 267 269 271 273 275 276 276 276 276 277 279 280 280 280 281 283 285 286 287 289 291 292 292 293 294 294 294 294 295 295 295 295 294 295 296 296 296 296 296 296 295 294 293 293 292 291 290 289 287 286 285 284 283 282 280 280 279 278 278 277 277 277 277 275
259 257 256 254 253 253 252 252 252 251 252 253 255 256 256 256 257 258 259 262 265 268 270 273 274 276 277 277 277 277 277 279 280 280 280 280 282 285 285 287 288 290 292 292 292 293 293 293 293 293 293 293 293 293 294 295 296 296 296 296 295 294 294 294 294 293 292 292 291 289 288 287 285 284 283 282 281 281 279 278 278 277 276 276 275
261 259 258 256 256 255 254 253 252 252 252 254 256 256 257 258 258 259 260 262 266 269 271 274 275 276 276 276 276 276 277 278 279 280 281 281 282 284 285 286 287 288 290 291 291 292 292 291 291 291 291 291 292 293 293 294 295 295 296 295 294 294 293 293 294 293 293 293 293 292 291 289 288 286 284 283 282 281 281 280 279 278 276 275 275
264 262 259 258 257 256 255 255 254 253 253 255 256 256 257 258 259 259 260 262 266 269 271 274 275 275 275 275 275 275 276 278 279 280 281 281 282 283 283 284 285 287 289 290 291 291 291 291 291 291 291 291 291 291 292 293 293 294 294 294 294 293 292 292 292 293 293 293 293 293 292 291 290 288 287 285 284 282 282 281 280 279 277 276 275
266 265 262 261 259 258 257 256 255 253 254 255 256 256 257 258 259 260 261 263 266 268 270 272 273 274 274 274 273 274 275 277 278 279 280 281 282 282 281 283 284 286 288 289 290 291 292 292 292 292 291 291 290 290 291 291 292 292 293 293 292 291 290 290 291 292 293 293 293 293 292 292 291 290 289 287 286 284 283 282 281 280 279 277 276
267 266 264 263 261 260 258 257 256 255 255 255 256 256 257 259 259 260 262 263 266 267 269 271 272 273 273 273 273 274 274 276 278 278 279 279 280 281 281 282 283 285 287 288 289 291 291 292 292 291 291 291 290 290 290 291 291 292 292 292 291 290 289 290 291 292 293 293 292 292 292 291 291 290 289 288 287 286 284 283 282 281 279 278 277
269 267 266 265 262 261 259 258 258 257 256 255 256 256 258 259 259 260 262 263 265 267 269 270 271 272 272 272 272 273 274 276 277 277 278 278 279 280 280 282 283 284 286 288 289 291 291 292 291 291 291 291 290 290 290 290 291 291 291 291 290 289 288 290 292 293 293 293 293 292 292 291 290 289 289 288 287 286 285 284 282 281 280 279 277
271 269 268 266 263 261 260 259 259 258 257 256 256 257 258 259 259 261 262 263 264 266 268 268 269 270 271 272 272 273 274 275 276 276 277 277 278 279 280 282 283 284 286 288 289 291 291 291 291 290 291 290 290 289 289 290 290 290 290 290 289 288 289 291 293 293 293 294 294 293 293 291 290 289 288 288 287 286 285 284 283 282 280 279 278
270 269 268 266 263 262 261 260 259 258 257 256 258 258 259 259 260 261 262 263 264 265 266 267 268 269 270 271 272 273 274 275 275 275 275 276 277 279 280 282 283 284 286 288 290 291 291 291 290 290 290 289 289 288 289 289 289 289 289 288 287 287 289 291 293 294 294 295 295 295 295 293 292 290 289 288 287 286 285 284 283 282 281 280 278
268 268 267 266 265 263 262 260 259 258 257 257 259 259 259 260 261 261 262 263 264 265 265 266 266 267 268 270 272 272 273 274 274 274 275 275 277 279 280 282 283 285 287 289 290 290 290 290 290 289 288 288 287 287 287 287 287 288 288 287 285 286 288 291 293 295 295 296 296 296 296 295 294 292 290 288 287 286 285 284 283 282 281 280 279
266 266 266 266 265 263 262 261 260 258 257 258 259 259 260 261 262 262 263 263 264 264 265 265 266 267 267 269 270 271 272 273 274 274 275 275 276 278 279 281 283 285 287 288 289 290 290 290 289 288 287 287 286 287 287 286 286 287 287 286 285 286 288 291 293 295 296 296 296 296 296 296 296 295 293 291 288 287 286 285 283 282 281 280 279
265 264 265 265 264 263 262 262 260 259 258 258 259 259 260 261 262 263 264 264 265 265 265 265 265 266 266 268 269 271 271 272 273 274 274 275 276 277 278 280 282 284 286 287 287 289 289 289 288 287 287 286 286 286 286 285 285 286 286 286 286 287 289 291 293 295 296 296 296 297 297 297 297 297 296 294 291 289 286 285 284 282 280 279 278
265 264 264 264 264 264 263 262 261 260 259 259 259 260 261 262 263 264 264 265 265 266 266 266 265 265 266 267 268 269 270 271 272 273 274 275 276 276 278 280 281 284 285 285 286 287 288 287 287 287 287 286 285 285 285 284 284 285 285 286 287 289 291 292 293 294 295 295 295 296 297 297 298 298 297 296 294 291 288 285 283 282 280 279 278
265 263 263 263 264 264 264 262 261 260 259 259 259 260 261 262 263 264 264 265 266 267 267 266 266 265 266 267 268 269 270 271 272 273 274 275 276 276 277 279 281 283 284 285 286 286 286 286 286 287 287 285 285 284 284 283 283 284 286 288 289 291 292 292 293 294 294 294 295 295 296 297 298 299 299 298 296 294 291 288 285 282 280 279 278
263 262 261 262 263 263 263 262 261 259 259 259 260 261 262 262 263 264 265 265 266 267 267 266 266 266 266 266 267 268 270 271 272 273 274 275 276 276 277 279 281 283 284 285 285 285 285 286 286 287 286 285 284 283 283 282 283 285 287 289 291 292 292 293 293 293 294 294 295 295 296 297 298 299 299 299 298 296 294 290 287 284 282 280 278
261 260 260 261 261 261 262 261 260 259 259 260 260 261 262 263 264 265 265 266 267 268 268 267 266 266 266 267 267 268 270 271 272 273 274 275 275 276 277 279 281 283 284 285 285 285 285 285 286 286 286 285 284 283 282 282 283 285 288 290 292 293 294 294 294 294 294 294 295 296 297 297 298 299 299 299 298 298 297 294 290 287 284 282 280
261 259 258 259 260 260 260 260 259 258 259 260 261 262 263 264 265 266 266 267 268 268 268 267 267 266 267 267 268 268 270 271 272 273 273 274 275 276 277 279 281 283 284 285 285 285 285 285 286 286 285 285 284 283 282 283 284 286 288 291 292 293 294 294 294 294 294 294 295 296 297 297 298 299 299 299 298 297 297 297 294 290 287 284 282
260 259 258 259 260 260 260 260 259 258 260 262 263 264 264 265 267 267 267 268 268 268 267 267 267 266 267 267 268 268 269 270 271 272 273 274 275 276 278 279 281 283 284 285 285 285 285 285 285 285 285 284 284 283 283 284 285 286 289 291 293 294 294 294 294 294 294 294 294 295 296 297 298 299 300 300 299 298 298 298 297 294 290 286 284
260 258 257 258 258 259 259 259 258 259 261 263 264 265 266 267 269 269 269 269 269 268 267 267 267 266 266 266 267 268 269 270 271 271 273 274 275 277 279 280 281 282 284 285 285 285 285 285 285 285 285 284 283 283 284 284 285 287 289 291 293 293 293 294 293 293 293 293 294 295 296 297 298 299 299 299 299 298 298 298 297 296 293 289 285
259 257 256 256 256 257 257 257 258 260 262 264 265 266 267 268 269 269 269 269 269 268 267 266 266 266 266 266 267 268 268 269 270 271 272 274 276 278 279 280 281 282 284 285 285 285 285 285 285 285 285 284 284 284 284 285 286 287 289 291 292 292 293 294 292 292 293 294 295 296 296 297 297 298 298 298 298 297 297 296 296 296 295 291 286
258 256 254 254 254 255 255 256 258 261 263 264 265 266 267 268 269 269 269 269 268 267 267 266 266 265 265 265 267 268 268 269 270 271 272 274 276 278 279 280 281 282 284 284 284 285 285 285 285 285 285 285 285 285 286 286 286 287 290 291 292 292 293 293 291 291 293 294 294 295 295 295 296 296 296 296 296 295 295 295 294 294 294 293 288
257 255 253 252 253 254 254 256 259 261 263 264 266 266 268 269 269 269 269 269 269 268 267 267 266 265 265 265 266 267 268 269 270 271 272 274 276 278 279 280 281 283 284 284 284 285 285 285 285 285 286 285 285 286 287 286 286 288 290 291 291 293 294 293 290 291 293 293 294 294 294 294 294 295 295 295 294 294 294 294 293 292 292 292 288
256 253 252 252 253 253 255 257 260 262 264 265 266 267 269 270 270 270 269 270 270 269 268 267 266 266 266 266 266 267 268 269 270 271 272 274 276 278 279 280 282 283 283 284 284 285 285 285 285 285 285 286 286 286 287 286 286 288 289 289 290 292 293 292 291 293 294 294 295 294 294 294 294 295 295 295 294 294 294 293 292 291 291 290 288
255 252 252 252 253 254 255 258 260 262 264 264 265 268 270 272 272 272 271 271 271 270 269 267 266 266 266 267 267 267 268 269 270 271 273 274 276 277 279 280 282 282 283 284 284 285 285 285 285 285 285 286 286 286 287 286 286 288 288 289 290 290 290 291 293 295 295 295 295 295 295 294 294 295 295 295 295 294 294 293 292 291 290 289 288
253 252 251 251 253 255 256 258 260 262 263 264 265 268 270 271 272 271 271 271 271 270 269 268 267 267 268 268 268 268 268 270 270 271 273 274 276 277 279 280 281 282 283 283 284 284 284 284 285 285 285 285 285 286 287 287 287 286 287 288 290 289 289 293 295 294 294 295 295 295 295 295 295 295 295 295 295 295 295 294 292 291 290 289 288
253 252 251 252 254 256 257 259 261 262 263 264 266 269 269 269 269 269 270 271 270 269 268 267 267 267 268 268 268 268 268 269 270 271 273 274 275 276 278 280 281 282 282 283 283 283 284 284 285 285 285 285 285 286 287 288 287 286 286 287 288 288 290 293 293 292 294 295 295 295 296 295 295 295 295 295 295 295 295 294 292 291 290 290 288
253 253 253 254 256 258 259 259 261 263 264 266 268 269 270 270 270 270 270 270 270 269 268 268 268 268 268 268 269 268 268 269 271 271 273 274 275 276 278 280 281 281 282 282 282 283 284 285 285 285 285 286 286 286 287 288 287 287 287 288 288 289 290 292 292 292 294 295 295 295 296 296 295 295 295 295 295 296 295 294 292 291 290 290 288
254 253 254 254 256 258 259 259 261 264 266 268 269 270 271 271 271 271 271 271 270 270 269 269 269 268 268 268 269 269 269 269 270 271 272 274 275 276 278 279 280 281 281 282 282 283 284 285 285 286 286 286 287 287 287 288 287 288 288 289 290 291 291 291 292 292 293 293 294 295 296 296 295 295 295 295 295 295 295 294 292 291 291 290 288
254 253 253 254 256 257 259 260 262 265 267 269 270 271 272 273 273 273 272 271 271 270 269 269 268 268 268 268 269 269 269 270 270 271 272 273 275 277 278 278 279 280 281 282 282 283 284 285 285 286 287 287 288 288 288 288 288 288 289 290 291 292 292 292 293 293 292 292 293 295 296 296 295 295 295 295 295 295 294 294 293 291 291 290 287
255 253 254 255 256 258 259 260 263 266 268 270 271 272 273 274 274 274 272 272 271 270 269 268 267 267 267 268 268 268 269 269 270 271 272 273 275 276 277 278 279 280 281 282 282 283 284 285 285 286 287 288 288 288 288 288 288 289 289 290 291 292 293 293 293 294 293 292 292 294 296 296 296 296 296 296 296 296 295 294 293 292 292 290 286
256 254 255 255 256 259 260 261 264 267 269 271 272 272 273 274 275 275 273 271 270 269 268 266 266 266 266 266 267 267 268 269 270 272 273 274 275 276 277 278 279 280 281 282 282 283 284 284 286 287 288 289 289 289 288 288 288 289 290 290 291 292 293 293 294 294 294 293 293 294 295 296 295 296 297 297 297 296 295 294 293 293 292 290 285